Time,TemperatureF,DewpointF,PressureIn,WindDirection,WindDirectionDegrees,WindSpeedMPH,WindSpeedGustMPH,Humidity,HourlyPrecipIn,Conditions,Clouds,dailyrainin,SoftwareType,DateUTC
2013-03-01 00:00:00,33.4,30.0,29.52,East,90,0.0,0.0,87,0.00,OVC,,0.00,WeatherDisplay:10.37,2013-03-01 05:00:00,
2013-03-01 00:02:00,33.4,30.0,29.52,East,90,0.0,0.0,87,0.00,OVC,,0.00,WeatherDisplay:10.37,2013-03-01 05:02:00,
2013-03-01 00:03:00,33.4,30.0,29.52,East,90,0.0,0.0,87,0.00,OVC,,0.00,WeatherDisplay:10.37,2013-03-01 05:03:00,
2013-03-01 00:05:00,33.4,30.0,29.52,East,90,0.0,0.0,87,0.00,OVC,,0.00,WeatherDisplay:10.37,2013-03-01 05:05:00,
2013-03-01 00:06:00,33.4,30.0,29.52,East,90,0.0,0.0,87,0.00,OVC,,0.00,WeatherDisplay:10.37,2013-03-01 05:06:00,
2013-03-01 00:11:00,33.4,30.0,29.52,East,90,0.0,0.0,87,0.00,OVC,,0.00,WeatherDisplay:10.37,2013-03-01 05:11:00,
2013-03-01 00:16:00,33.4,30.0,29.52,East,90,0.0,0.0,87,0.00,OVC,,0.00,WeatherDisplay:10.37,2013-03-01 05:16:00,
2013-03-01 00:21:00,33.4,30.0,29.52,East,90,0.0,0.0,87,0.00,OVC,,0.00,WeatherDisplay:10.37,2013-03-01 05:21:00,
2013-03-01 00:26:00,34.0,30.8,29.52,East,90,0.0,0.0,88,0.00,OVC,,0.00,WeatherDisplay:10.37,2013-03-01 05:26:00,
2013-03-01 00:31:00,34.0,30.8,29.52,East,90,0.0,0.0,88,0.00,OVC,,0.00,WeatherDisplay:10.37,2013-03-01 05:31:00,
2013-03-01 00:36:00,34.0,30.8,29.52,East,90,0.0,0.0,88,0.00,OVC,,0.00,WeatherDisplay:10.37,2013-03-01 05:36:00,
2013-03-01 00:41:00,34.0,30.8,29.52,East,90,0.0,0.0,88,0.00,OVC,,0.00,WeatherDisplay:10.37,2013-03-01 05:41:00,
2013-03-01 00:46:00,34.0,30.8,29.52,East,90,0.0,0.0,88,0.00,OVC,,0.00,WeatherDisplay:10.37,2013-03-01 05:46:00,
2013-03-01 00:51:00,34.0,30.8,29.52,East,90,0.0,0.0,88,0.00,OVC,,0.00,WeatherDisplay:10.37,2013-03-01 05:51:00,
2013-03-01 00:56:00,34.0,30.8,29.52,East,90,0.0,0.0,88,0.00,OVC,,0.00,WeatherDisplay:10.37,2013-03-01 05:56:00,
2013-03-01 01:01:00,34.0,30.8,29.52,East,90,0.0,0.0,88,0.00,OVC,,0.00,WeatherDisplay:10.37,2013-03-01 06:01:00,
2013-03-01 01:06:00,34.0,30.8,29.52,East,90,0.0,0.0,88,0.00,OVC,,0.00,WeatherDisplay:10.37,2013-03-01 06:06:00,
2013-03-01 01:11:00,34.0,30.8,29.52,East,90,0.0,0.0,88,0.00,OVC,,0.00,WeatherDisplay:10.37,2013-03-01 06:11:00,
2013-03-01 01:16:00,34.0,30.8,29.52,East,90,0.0,0.0,88,0.00,OVC,,0.00,WeatherDisplay:10.37,2013-03-01 06:16:00,
2013-03-01 01:21:00,34.0,30.8,29.53,East,90,0.0,0.0,88,0.00,OVC,,0.00,WeatherDisplay:10.37,2013-03-01 06:21:00,
2013-03-01 01:26:00,34.0,30.8,29.53,East,90,0.0,0.0,88,0.00,OVC,,0.00,WeatherDisplay:10.37,2013-03-01 06:26:00,
2013-03-01 01:31:00,34.0,30.8,29.53,East,90,0.0,0.0,88,0.00,OVC,,0.00,WeatherDisplay:10.37,2013-03-01 06:31:00,
2013-03-01 01:36:00,33.8,30.6,29.53,East,90,0.0,0.0,88,0.00,OVC,,0.00,WeatherDisplay:10.37,2013-03-01 06:36:00,
2013-03-01 01:41:00,34.0,30.8,29.51,East,90,0.0,0.0,88,0.00,OVC,,0.00,WeatherDisplay:10.37,2013-03-01 06:41:00,
2013-03-01 01:46:00,34.0,30.8,29.51,East,90,0.0,0.0,88,0.00,OVC,,0.00,WeatherDisplay:10.37,2013-03-01 06:46:00,
2013-03-01 01:51:00,34.0,30.8,29.51,East,90,0.0,0.0,88,0.00,OVC,,0.00,WeatherDisplay:10.37,2013-03-01 06:51:00,
2013-03-01 01:56:00,34.0,30.8,29.51,East,90,0.0,0.0,88,0.00,OVC,,0.00,WeatherDisplay:10.37,2013-03-01 06:56:00,
2013-03-01 02:01:00,33.6,30.2,29.51,East,90,0.0,0.0,87,0.00,OVC,,0.00,WeatherDisplay:10.37,2013-03-01 07:01:00,
2013-03-01 02:07:00,33.8,30.6,29.51,East,90,0.0,0.0,88,0.00,OVC,,0.00,WeatherDisplay:10.37,2013-03-01 07:07:00,
2013-03-01 02:13:00,33.8,30.6,29.51,East,90,0.0,0.0,88,0.00,OVC,,0.00,WeatherDisplay:10.37,2013-03-01 07:13:00,
2013-03-01 02:18:00,34.0,30.8,29.51,East,90,0.0,0.0,88,0.00,OVC,,0.00,WeatherDisplay:10.37,2013-03-01 07:18:00,
2013-03-01 02:23:00,34.0,30.8,29.51,East,90,0.0,0.0,88,0.00,OVC,,0.00,WeatherDisplay:10.37,2013-03-01 07:23:00,
2013-03-01 02:28:00,34.0,30.8,29.51,East,90,0.0,0.0,88,0.00,OVC,,0.00,WeatherDisplay:10.37,2013-03-01 07:28:00,
2013-03-01 02:33:00,34.0,30.8,29.51,East,90,0.0,0.0,88,0.00,OVC,,0.00,WeatherDisplay:10.37,2013-03-01 07:33:00,
2013-03-01 02:38:00,34.2,31.0,29.51,East,90,0.0,0.0,88,0.00,OVC,,0.00,WeatherDisplay:10.37,2013-03-01 07:38:00,
2013-03-01 02:43:00,34.3,31.2,29.51,East,90,0.0,0.0,88,0.00,OVC,,0.00,WeatherDisplay:10.37,2013-03-01 07:43:00,
2013-03-01 02:48:00,34.0,30.8,29.51,East,90,0.0,0.0,88,0.00,OVC,,0.00,WeatherDisplay:10.37,2013-03-01 07:48:00,
2013-03-01 02:53:00,34.2,31.0,29.51,East,90,0.0,0.0,88,0.00,OVC,,0.00,WeatherDisplay:10.37,2013-03-01 07:53:00,
2013-03-01 02:58:00,34.2,31.0,29.50,East,90,0.0,0.0,88,0.00,OVC,,0.00,WeatherDisplay:10.37,2013-03-01 07:58:00,
2013-03-01 03:03:00,34.2,31.0,29.50,East,90,0.0,0.0,88,0.00,BKN,,0.00,WeatherDisplay:10.37,2013-03-01 08:03:00,
2013-03-01 03:08:00,34.2,31.0,29.50,East,90,0.0,0.0,88,0.00,BKN,,0.00,WeatherDisplay:10.37,2013-03-01 08:08:00,
2013-03-01 03:13:00,34.3,31.2,29.50,East,90,0.0,0.0,88,0.00,BKN,,0.00,WeatherDisplay:10.37,2013-03-01 08:13:00,
2013-03-01 03:18:00,34.3,31.2,29.51,East,90,0.0,0.0,88,0.00,BKN,,0.00,WeatherDisplay:10.37,2013-03-01 08:18:00,
2013-03-01 03:23:00,34.7,31.5,29.51,East,90,0.0,0.0,88,0.00,BKN,,0.00,WeatherDisplay:10.37,2013-03-01 08:23:00,
2013-03-01 03:28:00,34.5,31.3,29.51,East,90,0.0,0.0,88,0.00,BKN,,0.00,WeatherDisplay:10.37,2013-03-01 08:28:00,
2013-03-01 03:33:00,34.3,31.2,29.51,East,90,0.0,0.0,88,0.00,BKN,,0.00,WeatherDisplay:10.37,2013-03-01 08:33:00,
2013-03-01 03:38:00,34.3,31.2,29.51,East,90,0.0,0.0,88,0.00,BKN,,0.00,WeatherDisplay:10.37,2013-03-01 08:38:00,
2013-03-01 03:43:00,34.3,31.2,29.51,East,90,0.0,0.0,88,0.00,BKN,,0.00,WeatherDisplay:10.37,2013-03-01 08:43:00,
2013-03-01 03:48:00,34.5,31.3,29.51,East,90,0.0,0.0,88,0.00,BKN,,0.00,WeatherDisplay:10.37,2013-03-01 08:48:00,
2013-03-01 03:53:00,34.5,31.3,29.51,East,90,0.0,0.0,88,0.00,BKN,,0.00,WeatherDisplay:10.37,2013-03-01 08:53:00,
2013-03-01 03:58:00,34.7,31.5,29.52,East,90,0.0,0.0,88,0.00,BKN,,0.00,WeatherDisplay:10.37,2013-03-01 08:58:00,
2013-03-01 04:03:00,34.3,31.2,29.52,East,90,0.0,0.0,88,0.00,OVC,,0.00,WeatherDisplay:10.37,2013-03-01 09:03:00,
2013-03-01 04:08:00,34.3,31.2,29.52,East,90,0.0,0.0,88,0.00,OVC,,0.00,WeatherDisplay:10.37,2013-03-01 09:08:00,
2013-03-01 04:13:00,34.2,31.0,29.52,East,90,0.0,0.0,88,0.00,OVC,,0.00,WeatherDisplay:10.37,2013-03-01 09:13:00,
2013-03-01 04:18:00,34.0,30.8,29.52,East,90,0.0,0.0,88,0.00,OVC,,0.00,WeatherDisplay:10.37,2013-03-01 09:18:00,
2013-03-01 04:23:00,33.8,30.6,29.52,East,90,0.0,0.0,88,0.00,OVC,,0.00,WeatherDisplay:10.37,2013-03-01 09:23:00,
2013-03-01 04:28:00,33.4,30.0,29.52,East,90,0.0,0.0,87,0.00,OVC,,0.00,WeatherDisplay:10.37,2013-03-01 09:28:00,
2013-03-01 04:33:00,33.4,30.0,29.52,East,90,0.0,0.0,87,0.00,OVC,,0.00,WeatherDisplay:10.37,2013-03-01 09:33:00,
2013-03-01 04:38:00,33.3,29.8,29.52,East,90,0.0,0.0,87,0.00,OVC,,0.00,WeatherDisplay:10.37,2013-03-01 09:38:00,
2013-03-01 04:43:00,33.3,29.8,29.52,East,90,0.0,0.0,87,0.00,OVC,,0.00,WeatherDisplay:10.37,2013-03-01 09:43:00,
2013-03-01 04:48:00,32.7,29.3,29.52,East,90,0.0,0.0,87,0.00,OVC,,0.00,WeatherDisplay:10.37,2013-03-01 09:48:00,
2013-03-01 04:53:00,32.7,29.3,29.52,East,90,0.0,0.0,87,0.00,OVC,,0.00,WeatherDisplay:10.37,2013-03-01 09:53:00,
2013-03-01 04:58:00,32.5,29.1,29.52,East,90,0.0,0.0,87,0.00,OVC,,0.00,WeatherDisplay:10.37,2013-03-01 09:58:00,
2013-03-01 05:04:00,32.2,28.7,29.52,East,90,0.0,0.0,87,0.00,OVC,,0.00,WeatherDisplay:10.37,2013-03-01 10:04:00,
2013-03-01 05:09:00,32.0,28.6,29.52,East,90,0.0,0.0,87,0.00,OVC,,0.00,WeatherDisplay:10.37,2013-03-01 10:09:00,
2013-03-01 05:14:00,31.8,28.4,29.52,East,90,0.0,0.0,87,0.00,OVC,,0.00,WeatherDisplay:10.37,2013-03-01 10:14:00,
2013-03-01 05:19:00,31.8,28.4,29.54,East,90,0.0,0.0,87,0.00,OVC,,0.00,WeatherDisplay:10.37,2013-03-01 10:19:00,
2013-03-01 05:24:00,31.5,28.0,29.54,East,90,0.0,0.0,87,0.00,OVC,,0.00,WeatherDisplay:10.37,2013-03-01 10:24:00,
2013-03-01 05:29:00,31.3,27.9,29.54,East,90,0.0,0.0,87,0.00,OVC,,0.00,WeatherDisplay:10.37,2013-03-01 10:29:00,
2013-03-01 05:34:00,31.5,28.0,29.54,East,90,0.0,0.0,87,0.00,OVC,,0.00,WeatherDisplay:10.37,2013-03-01 10:34:00,
2013-03-01 05:39:00,31.5,28.0,29.54,East,90,0.0,0.0,87,0.00,OVC,,0.00,WeatherDisplay:10.37,2013-03-01 10:39:00,
2013-03-01 05:44:00,31.8,28.4,29.54,East,90,0.0,0.0,87,0.00,OVC,,0.00,WeatherDisplay:10.37,2013-03-01 10:44:00,
2013-03-01 05:49:00,31.8,28.4,29.54,East,90,0.0,0.0,87,0.00,OVC,,0.00,WeatherDisplay:10.37,2013-03-01 10:49:00,